P/2010 K2 ( WISE )

Japanese version
Home page
Updated on October 3, 2010

---------------------------------------------------------------------

* Profile

Discovery Date May 27, 2010
Magnitude
Discoverer Wide Field Infrared Survey Explorer (NASA)

* Orbital Elements

T 2010 July 7.5580 TT                                   MPC
q   1.197980             (2000.0)            P               Q
n   0.1981115      Peri.  328.5365      -0.3382282      +0.9234695
a   2.914269       Node   281.1577      -0.8205416      -0.3836350
e   0.588926       Incl.   10.6386      -0.4607745      +0.0053064
P   4.98
From 50 observations 2010 May 27-July 8.

* Magnitudes Graph

        m1 = 19.0 + 5 log d + 10.0 log r

---------------------------------------------------------------------

The orbital elements are published on M.P.E.C. 2010-N34.
The magnitudes graphs are made with Comet for Windows.

---------------------------------------------------------------------

Copyright(C) Seiichi Yoshida (comet@aerith.net). All rights reserved.